Location: Asheville, NC
(35.6000°N, 82.5500°W)
Time: 21:59:11
(UTC-04:00)

KKS-1 - Visible Passes

Search period start: 25 April 2018 00:00
Search period end: 05 May 2018 00:00
Orbit: 624 x 638 km, 98.4° (Epoch: 24 April)

Date Brightness Start Highest point End Pass type
(mag) Time Alt. Az. Time Alt. Az. Time Alt. Az.
25 Apr ? 05:55:04 10° SE 05:59:00 34° ENE 06:02:55 10° N visible
26 Apr ? 06:14:13 10° SSE 06:18:29 57° ENE 06:22:44 10° N visible
28 Apr ? 05:16:50 10° E 05:18:30 12° ENE 05:20:11 10° NE visible
29 Apr ? 05:31:31 10° ESE 05:34:25 18° ENE 05:37:20 10° NNE visible
30 Apr ? 05:45:40 10° SE 05:49:12 25° ENE 05:52:47 10° NNE visible
01 May ? 05:58:56 10° SE 06:02:50 36° ENE 06:06:48 10° N visible
